START_TIME,STEP,MOV.,M15,t_acc.,M20,t_acc.
1979-07-07 12:00:44.510 ,0,0,0.,24.0,0.,24.0
1979-07-07 12:01:08.510 ,1,1,0.,24.0,0.,24.0
1979-07-07 12:01:32.510 ,1,0,0.,24.0,0.,24.0
1979-07-07 12:01:56.510 ,2,1,0.,24.0,0.,24.0
1979-07-07 12:02:20.510 ,2,0,0.,24.0,0.,24.0
1979-07-07 12:02:44.510 ,3,1,1.,24.0,0.,24.0
1979-07-07 12:03:08.510 ,3,0,0.,24.0,0.,24.0
1979-07-07 12:03:32.510 ,4,1,0.,24.0,0.,24.0
1979-07-07 12:03:56.510 ,4,0,0.,24.0,0.,24.0
1979-07-07 12:04:20.510 ,5,1,0.,24.0,0.,24.0
1979-07-07 12:04:44.510 ,5,0,0.,24.0,0.,24.0
1979-07-07 12:05:08.510 ,6,1,0.,24.0,0.,24.0
1979-07-07 12:05:32.510 ,6,0,0.,24.0,0.,24.0
1979-07-07 12:05:56.510 ,7,1,0.,24.0,0.,24.0
1979-07-07 12:06:20.510 ,7,0,0.,24.0,0.,24.0
1979-07-07 12:06:44.510 ,7,1,0.,24.0,0.,24.0
1979-07-07 12:07:08.510 ,7,0,0.,24.0,0.,24.0
1979-07-07 12:07:32.510 ,6,1,0.,24.0,0.,24.0
1979-07-07 12:07:56.510 ,6,0,0.,24.0,0.,24.0
1979-07-07 12:08:20.510 ,5,1,0.,24.0,0.,24.0
1979-07-07 12:08:44.510 ,5,0,0.,24.0,0.,24.0
1979-07-07 12:09:08.510 ,4,1,0.,24.0,0.,24.0
1979-07-07 12:09:32.510 ,4,0,0.,24.0,0.,24.0
1979-07-07 12:09:56.510 ,3,1,0.,24.0,0.,24.0
1979-07-07 12:10:20.510 ,3,0,0.,24.0,0.,24.0
1979-07-07 12:10:44.510 ,2,1,0.,24.0,0.,24.0
1979-07-07 12:11:08.510 ,2,0,0.,24.0,0.,24.0
1979-07-07 12:11:32.510 ,1,1,0.,24.0,0.,24.0
1979-07-07 12:11:56.510 ,1,0,0.,24.0,0.,24.0
1979-07-07 12:12:20.510 ,0,1,0.,24.0,0.,24.0
1979-07-07 12:12:44.510 ,0,0,0.,24.0,0.,24.0
1979-07-07 12:13:08.510 ,0,1,0.,24.0,0.,24.0
1979-07-07 12:13:32.510 ,0,0,0.,24.0,0.,24.0
1979-07-07 12:13:56.510 ,1,1,0.,24.0,0.,24.0
1979-07-07 12:14:20.510 ,1,0,0.,24.0,0.,24.0
1979-07-07 12:14:44.510 ,2,1,0.,24.0,0.,24.0
1979-07-07 12:15:08.510 ,2,0,0.,24.0,0.,24.0
1979-07-07 12:15:32.510 ,3,1,0.,24.0,0.,24.0
1979-07-07 12:15:56.510 ,3,0,0.,24.0,0.,24.0
1979-07-07 12:16:20.510 ,4,1,0.,24.0,0.,24.0
1979-07-07 12:16:44.510 ,4,0,1.,24.0,0.,24.0
1979-07-07 12:17:08.510 ,5,1,0.,24.0,0.,24.0
1979-07-07 12:17:32.510 ,5,0,0.,24.0,0.,24.0
1979-07-07 12:17:56.510 ,6,1,0.,24.0,0.,24.0
1979-07-07 12:18:20.510 ,6,0,0.,24.0,0.,24.0
1979-07-07 12:18:44.510 ,7,0,0.,24.0,0.,24.0
1979-07-07 12:19:08.510 ,7,0,0.,24.0,0.,24.0
1979-07-07 12:19:32.510 ,3,1,1.,24.0,0.,24.0
1979-07-07 12:19:56.510 ,0,1,0.,24.0,0.,24.0
1979-07-07 12:20:20.510 ,4,1,1.,24.0,0.,24.0
1979-07-07 12:20:44.510 ,7,1,0.,24.0,0.,24.0
1979-07-07 12:21:08.510 ,3,1,0.,24.0,0.,24.0
1979-07-07 12:21:32.510 ,0,1,1.,24.0,0.,24.0
1979-07-07 12:21:56.510 ,4,1,0.,24.0,0.,24.0
1979-07-07 12:22:20.510 ,7,1,0.,24.0,0.,24.0
1979-07-07 12:22:44.510 ,3,1,0.,24.0,0.,24.0
1979-07-07 12:23:08.510 ,0,1,0.,24.0,0.,24.0
1979-07-07 12:23:32.510 ,4,1,0.,24.0,0.,24.0
1979-07-07 12:23:56.510 ,7,1,0.,24.0,0.,24.0
1979-07-07 12:24:20.510 ,3,1,1.,24.0,0.,24.0
1979-07-07 12:24:44.510 ,0,1,0.,24.0,0.,24.0
1979-07-07 12:25:08.510 ,4,1,0.,24.0,0.,24.0
1979-07-07 12:25:32.510 ,7,1,0.,24.0,0.,24.0
1979-07-07 12:25:56.510 ,3,1,0.,24.0,0.,24.0
1979-07-07 12:26:20.510 ,0,1,0.,24.0,0.,24.0
1979-07-07 12:26:44.510 ,4,1,0.,24.0,0.,24.0
1979-07-07 12:27:08.510 ,7,1,0.,24.0,0.,24.0
1979-07-07 12:27:32.510 ,3,1,0.,24.0,0.,24.0
1979-07-07 12:27:56.510 ,0,1,0.,24.0,0.,24.0
1979-07-07 12:28:20.510 ,4,1,0.,24.0,0.,24.0
1979-07-07 12:28:44.510 ,7,1,2.,24.0,0.,24.0
1979-07-07 12:29:08.510 ,3,1,0.,24.0,0.,24.0
1979-07-07 12:29:32.510 ,0,1,0.,24.0,0.,24.0
1979-07-07 12:29:56.510 ,0,0,0.,24.0,0.,24.0
1979-07-07 12:30:20.510 ,0,0,0.,24.0,0.,24.0
1979-07-07 12:30:44.510 ,5,1,0.,24.0,0.,24.0
1979-07-07 12:31:08.510 ,5,0,0.,24.0,0.,24.0
1979-07-07 12:31:32.510 ,4,1,0.,24.0,0.,24.0
1979-07-07 12:31:56.510 ,4,0,0.,24.0,0.,24.0
1979-07-07 12:32:20.510 ,3,1,0.,24.0,0.,24.0
1979-07-07 12:32:44.510 ,3,0,0.,24.0,0.,24.0
1979-07-07 12:33:08.510 ,2,1,1.,24.0,0.,24.0
1979-07-07 12:33:32.510 ,2,0,0.,24.0,0.,24.0
1979-07-07 12:33:56.510 ,1,1,0.,24.0,0.,24.0
1979-07-07 12:34:20.510 ,1,0,0.,24.0,0.,24.0
1979-07-07 12:34:44.510 ,0,1,1.,24.0,0.,24.0
1979-07-07 12:35:08.510 ,0,0,1.,24.0,0.,24.0
1979-07-07 12:35:32.510 ,0,1,0.,24.0,0.,24.0
1979-07-07 12:35:56.510 ,0,0,0.,24.0,0.,24.0
1979-07-07 12:36:20.510 ,1,1,0.,24.0,0.,24.0
1979-07-07 12:36:44.510 ,1,0,0.,24.0,0.,24.0
1979-07-07 12:37:08.510 ,2,1,0.,24.0,0.,24.0
1979-07-07 12:37:32.510 ,2,0,0.,24.0,0.,24.0
1979-07-07 12:37:56.510 ,3,1,0.,24.0,0.,24.0
1979-07-07 12:38:20.510 ,3,0,0.,24.0,0.,24.0
1979-07-07 12:38:44.510 ,4,1,1.,24.0,0.,24.0
1979-07-07 12:39:08.510 ,4,0,0.,24.0,0.,24.0
1979-07-07 12:39:32.510 ,5,1,0.,24.0,0.,24.0
1979-07-07 12:39:56.510 ,5,0,1.,24.0,0.,24.0
1979-07-07 12:40:20.510 ,6,1,0.,24.0,0.,24.0
1979-07-07 12:40:44.510 ,6,0,0.,24.0,0.,24.0
1979-07-07 12:41:08.510 ,7,1,0.,24.0,0.,24.0
1979-07-07 12:41:32.510 ,7,0,1.,24.0,0.,24.0
1979-07-07 12:41:56.510 ,7,1,0.,24.0,0.,24.0
1979-07-07 12:42:20.510 ,7,0,0.,24.0,0.,24.0
1979-07-07 12:42:44.510 ,6,1,0.,24.0,0.,24.0
1979-07-07 12:43:08.510 ,6,0,1.,24.0,0.,24.0
1979-07-07 12:43:32.510 ,5,1,0.,24.0,0.,24.0
1979-07-07 12:43:56.510 ,5,0,0.,24.0,0.,24.0
1979-07-07 12:44:20.510 ,4,1,0.,24.0,0.,24.0
1979-07-07 12:44:44.510 ,4,0,0.,24.0,0.,24.0
1979-07-07 12:45:08.510 ,3,1,0.,24.0,0.,24.0
1979-07-07 12:45:32.510 ,3,0,0.,24.0,0.,24.0
1979-07-07 12:45:56.510 ,2,1,0.,24.0,0.,24.0
1979-07-07 12:46:20.510 ,2,0,0.,24.0,0.,24.0
1979-07-07 12:46:44.510 ,1,1,0.,24.0,0.,24.0
1979-07-07 12:47:08.510 ,1,0,0.,24.0,0.,24.0
1979-07-07 12:47:32.510 ,0,1,0.,24.0,0.,24.0
1979-07-07 12:47:56.510 ,0,0,0.,24.0,0.,24.0
1979-07-07 12:48:20.510 ,0,1,0.,24.0,0.,24.0
1979-07-07 12:48:44.510 ,0,0,0.,24.0,0.,24.0
1979-07-07 12:49:08.510 ,1,1,0.,24.0,0.,24.0
1979-07-07 12:49:32.510 ,1,0,0.,24.0,0.,24.0
1979-07-07 12:49:56.510 ,2,1,0.,24.0,0.,24.0
1979-07-07 12:50:20.510 ,2,0,0.,24.0,0.,24.0
1979-07-07 12:50:44.510 ,3,1,1.,24.0,0.,24.0
1979-07-07 12:51:08.510 ,3,0,0.,24.0,0.,24.0
1979-07-07 12:51:32.510 ,4,1,0.,24.0,0.,24.0
1979-07-07 12:51:56.510 ,4,0,0.,24.0,0.,24.0
1979-07-07 12:52:20.510 ,5,1,0.,24.0,0.,24.0
1979-07-07 12:52:44.510 ,5,0,1.,24.0,0.,24.0
1979-07-07 12:53:08.510 ,6,1,0.,24.0,0.,24.0
1979-07-07 12:53:32.510 ,6,0,0.,24.0,0.,24.0
1979-07-07 12:53:56.510 ,7,1,0.,24.0,0.,24.0
1979-07-07 12:54:20.510 ,7,0,1.,24.0,0.,24.0
1979-07-07 12:54:44.510 ,7,1,0.,24.0,0.,24.0
1979-07-07 12:55:08.510 ,7,0,0.,24.0,0.,24.0
1979-07-07 12:55:32.510 ,6,1,0.,24.0,0.,24.0
1979-07-07 12:55:56.510 ,6,0,0.,24.0,0.,24.0
1979-07-07 12:56:20.510 ,5,1,0.,24.0,0.,24.0
1979-07-07 12:56:44.510 ,5,0,0.,24.0,0.,24.0
1979-07-07 12:57:08.510 ,4,1,0.,24.0,0.,24.0
1979-07-07 12:57:32.510 ,4,0,0.,24.0,0.,24.0
1979-07-07 12:57:56.510 ,3,1,0.,24.0,0.,24.0
1979-07-07 12:58:20.510 ,3,0,0.,24.0,0.,24.0
1979-07-07 12:58:44.510 ,2,1,1.,24.0,0.,24.0
1979-07-07 12:59:08.510 ,2,0,0.,24.0,0.,24.0
1979-07-07 12:59:32.510 ,1,1,0.,24.0,0.,24.0
1979-07-07 12:59:56.510 ,1,0,0.,24.0,0.,24.0
1979-07-07 13:00:20.510 ,0,1,0.,24.0,0.,24.0
1979-07-07 13:00:44.510 ,0,0,1.,24.0,0.,24.0
1979-07-07 13:01:08.510 ,0,1,0.,24.0,0.,24.0
1979-07-07 13:01:32.510 ,0,0,0.,24.0,0.,24.0
1979-07-07 13:01:56.510 ,1,1,0.,24.0,0.,24.0
1979-07-07 13:02:20.510 ,1,0,0.,24.0,0.,24.0
1979-07-07 13:02:44.510 ,2,1,0.,24.0,0.,24.0
1979-07-07 13:03:08.510 ,2,0,0.,24.0,0.,24.0
1979-07-07 13:03:32.510 ,3,1,0.,24.0,0.,24.0
1979-07-07 13:03:56.510 ,3,0,1.,24.0,0.,24.0
1979-07-07 13:04:20.510 ,4,1,0.,24.0,0.,24.0
1979-07-07 13:04:44.510 ,4,0,0.,24.0,0.,24.0
1979-07-07 13:05:08.510 ,5,1,0.,24.0,0.,24.0
1979-07-07 13:05:32.510 ,5,0,0.,24.0,0.,24.0
1979-07-07 13:05:56.510 ,6,1,0.,24.0,0.,24.0
1979-07-07 13:06:20.510 ,6,0,0.,24.0,0.,24.0
1979-07-07 13:06:44.510 ,7,0,1.,24.0,0.,24.0
1979-07-07 13:07:08.510 ,7,0,0.,24.0,0.,24.0
1979-07-07 13:07:32.510 ,3,1,0.,24.0,0.,24.0
1979-07-07 13:07:56.510 ,0,1,0.,24.0,0.,24.0
1979-07-07 13:08:20.510 ,4,1,0.,24.0,0.,24.0
1979-07-07 13:08:44.510 ,7,1,0.,24.0,0.,24.0
1979-07-07 13:09:08.510 ,3,1,0.,24.0,0.,24.0
1979-07-07 13:09:32.510 ,0,1,0.,24.0,0.,24.0
1979-07-07 13:09:56.510 ,4,1,1.,24.0,0.,24.0
1979-07-07 13:10:20.510 ,7,1,0.,24.0,0.,24.0
1979-07-07 13:10:44.510 ,3,1,1.,24.0,0.,24.0
1979-07-07 13:11:08.510 ,0,1,0.,24.0,0.,24.0
1979-07-07 13:11:32.510 ,4,1,1.,24.0,0.,24.0
1979-07-07 13:11:56.510 ,7,1,0.,24.0,0.,24.0
1979-07-07 13:12:20.510 ,3,1,0.,24.0,0.,24.0
1979-07-07 13:12:44.510 ,0,1,0.,24.0,0.,24.0
1979-07-07 13:13:08.510 ,4,1,0.,24.0,0.,24.0
1979-07-07 13:13:32.510 ,7,1,0.,24.0,0.,24.0
1979-07-07 13:13:56.510 ,3,1,0.,24.0,0.,24.0
1979-07-07 13:14:20.510 ,0,1,0.,24.0,0.,24.0
1979-07-07 13:14:44.510 ,4,1,0.,24.0,0.,24.0
1979-07-07 13:15:08.510 ,7,1,0.,24.0,0.,24.0
1979-07-07 13:15:32.510 ,3,1,0.,24.0,0.,24.0
1979-07-07 13:15:56.510 ,0,1,0.,24.0,0.,24.0
1979-07-07 13:16:20.510 ,0,0,0.,24.0,0.,24.0
1979-07-07 13:16:44.510 ,7,1,0.,24.0,0.,24.0
1979-07-07 13:17:08.510 ,3,1,0.,24.0,0.,24.0
1979-07-07 13:17:32.510 ,0,1,1.,24.0,0.,24.0
1979-07-07 13:17:56.510 ,0,0,0.,24.0,0.,24.0
1979-07-07 13:18:20.510 ,0,0,0.,24.0,0.,24.0
1979-07-07 13:18:44.510 ,5,1,0.,24.0,0.,24.0
1979-07-07 13:19:08.510 ,5,0,1.,24.0,0.,24.0
1979-07-07 13:19:32.510 ,4,1,0.,24.0,0.,24.0
1979-07-07 13:19:56.510 ,4,0,1.,24.0,0.,24.0
1979-07-07 13:20:20.510 ,3,1,0.,24.0,0.,24.0
1979-07-07 13:20:44.510 ,3,0,0.,24.0,0.,24.0
1979-07-07 13:21:08.510 ,2,1,1.,24.0,0.,24.0
1979-07-07 13:21:32.510 ,2,0,0.,24.0,0.,24.0
1979-07-07 13:21:56.510 ,1,1,0.,24.0,0.,24.0
1979-07-07 13:22:20.510 ,1,0,0.,24.0,0.,24.0
1979-07-07 13:22:44.510 ,0,1,0.,24.0,0.,24.0
1979-07-07 13:23:08.510 ,0,0,0.,24.0,0.,24.0
1979-07-07 13:23:32.510 ,0,1,0.,24.0,0.,24.0
1979-07-07 13:23:56.510 ,0,0,1.,24.0,0.,24.0
1979-07-07 13:24:20.510 ,1,1,0.,24.0,0.,24.0
1979-07-07 13:24:44.510 ,0,0,0.,24.0,0.,24.0
1979-07-07 13:25:15.710 ,0,0,0.,24.0,0.,24.0
1979-07-07 13:25:32.510 ,0,0,1.,24.0,0.,24.0
1979-07-07 13:25:56.510 ,3,1,0.,24.0,0.,24.0
1979-07-07 13:26:20.510 ,3,0,0.,24.0,0.,24.0
1979-07-07 13:26:44.510 ,4,1,0.,24.0,0.,24.0
1979-07-07 13:27:08.510 ,4,0,2.,24.0,0.,24.0
1979-07-07 13:27:32.510 ,5,1,0.,24.0,0.,24.0
1979-07-07 13:27:56.510 ,5,0,0.,24.0,0.,24.0
1979-07-07 13:28:20.510 ,6,1,0.,24.0,0.,24.0
1979-07-07 13:28:44.510 ,6,0,0.,24.0,0.,24.0
1979-07-07 13:29:08.510 ,7,1,0.,24.0,0.,24.0
1979-07-07 13:29:32.510 ,7,0,0.,24.0,0.,24.0
1979-07-07 13:29:56.510 ,7,1,0.,24.0,0.,24.0
1979-07-07 13:30:20.510 ,7,0,0.,24.0,0.,24.0
1979-07-07 13:30:44.510 ,6,1,0.,24.0,0.,24.0
1979-07-07 13:31:08.510 ,6,0,0.,24.0,0.,24.0
1979-07-07 13:31:32.510 ,5,1,0.,24.0,0.,24.0
1979-07-07 13:31:56.510 ,5,0,0.,24.0,0.,24.0
1979-07-07 13:32:20.510 ,4,1,0.,24.0,0.,24.0
1979-07-07 13:32:44.510 ,4,0,0.,24.0,0.,24.0
1979-07-07 13:33:08.510 ,3,1,0.,24.0,0.,24.0
1979-07-07 13:33:32.510 ,3,0,0.,24.0,0.,24.0
1979-07-07 13:33:56.510 ,2,1,0.,24.0,0.,24.0
1979-07-07 13:34:20.510 ,2,0,0.,24.0,0.,24.0
1979-07-07 13:34:44.510 ,1,1,0.,24.0,0.,24.0
1979-07-07 13:35:08.510 ,1,0,0.,24.0,0.,24.0
1979-07-07 13:35:32.510 ,0,1,0.,24.0,0.,24.0
1979-07-07 13:35:56.510 ,0,0,0.,24.0,0.,24.0
1979-07-07 13:36:20.510 ,0,1,1.,24.0,0.,24.0
1979-07-07 13:36:44.510 ,0,0,0.,24.0,0.,24.0
1979-07-07 13:37:08.510 ,1,1,0.,24.0,0.,24.0
1979-07-07 13:37:32.510 ,1,0,2.,24.0,0.,24.0
1979-07-07 13:37:56.510 ,2,1,0.,24.0,0.,24.0
1979-07-07 13:38:20.510 ,2,0,0.,24.0,0.,24.0
1979-07-07 13:38:44.510 ,3,1,0.,24.0,0.,24.0
1979-07-07 13:39:08.510 ,3,0,0.,24.0,0.,24.0
1979-07-07 13:39:32.510 ,4,1,0.,24.0,0.,24.0
1979-07-07 13:39:56.510 ,4,0,0.,24.0,0.,24.0
1979-07-07 13:39:56.510 ,4,0,0.,24.0,0.,24.0
1979-07-07 13:40:20.510 ,5,1,0.,24.0,0.,24.0
1979-07-07 13:40:44.510 ,5,0,0.,24.0,0.,24.0
1979-07-07 13:41:08.510 ,6,1,0.,24.0,0.,24.0
1979-07-07 13:41:32.510 ,6,0,0.,24.0,0.,24.0
1979-07-07 13:41:56.510 ,7,1,0.,24.0,0.,24.0
1979-07-07 13:42:20.510 ,7,0,0.,24.0,0.,24.0
1979-07-07 13:42:44.510 ,7,1,0.,24.0,0.,24.0
1979-07-07 13:43:08.510 ,7,0,0.,24.0,0.,24.0
1979-07-07 13:43:32.510 ,6,1,0.,24.0,0.,24.0
1979-07-07 13:43:56.510 ,6,0,0.,24.0,0.,24.0
1979-07-07 13:44:20.510 ,5,1,0.,24.0,0.,24.0
1979-07-07 13:44:44.510 ,5,0,1.,24.0,0.,24.0
1979-07-07 13:45:08.510 ,4,1,0.,24.0,0.,24.0
1979-07-07 13:45:32.510 ,4,0,0.,24.0,0.,24.0
1979-07-07 13:45:56.510 ,3,1,0.,24.0,0.,24.0
1979-07-07 13:46:20.510 ,3,0,0.,24.0,0.,24.0
1979-07-07 13:46:44.510 ,2,1,0.,24.0,0.,24.0
1979-07-07 13:47:08.510 ,2,0,0.,24.0,0.,24.0
1979-07-07 13:47:32.510 ,1,1,0.,24.0,0.,24.0
1979-07-07 13:47:56.510 ,1,0,0.,24.0,0.,24.0
1979-07-07 13:48:20.510 ,0,1,0.,24.0,0.,24.0
1979-07-07 13:48:44.510 ,0,0,0.,24.0,0.,24.0
1979-07-07 13:49:08.510 ,0,1,0.,24.0,0.,24.0
1979-07-07 13:49:32.510 ,0,0,0.,24.0,0.,24.0
1979-07-07 13:49:56.510 ,1,1,0.,24.0,0.,24.0
1979-07-07 13:50:20.510 ,1,0,0.,24.0,0.,24.0
1979-07-07 13:50:44.510 ,2,1,1.,24.0,0.,24.0
1979-07-07 13:51:08.510 ,2,0,0.,24.0,0.,24.0
1979-07-07 13:51:32.510 ,3,1,0.,24.0,0.,24.0
1979-07-07 13:51:56.510 ,3,0,1.,24.0,0.,24.0
1979-07-07 13:52:20.510 ,4,1,0.,24.0,0.,24.0
1979-07-07 13:52:44.510 ,4,0,0.,24.0,0.,24.0
1979-07-07 13:53:08.510 ,5,1,0.,24.0,0.,24.0
1979-07-07 13:53:32.510 ,5,0,0.,24.0,0.,24.0
1979-07-07 13:53:56.510 ,6,1,0.,24.0,0.,24.0
1979-07-07 13:54:20.510 ,6,0,1.,24.0,0.,24.0
1979-07-07 13:54:44.510 ,7,0,0.,24.0,0.,24.0
1979-07-07 13:55:08.510 ,7,0,0.,24.0,0.,24.0
1979-07-07 13:55:32.510 ,3,1,0.,24.0,0.,24.0
1979-07-07 13:55:56.510 ,0,1,0.,24.0,0.,24.0
1979-07-07 13:56:20.510 ,4,1,0.,24.0,0.,24.0
1979-07-07 13:56:44.510 ,7,1,0.,24.0,0.,24.0
1979-07-07 13:57:08.510 ,3,1,0.,24.0,0.,24.0
1979-07-07 13:57:32.510 ,0,1,0.,24.0,0.,24.0
1979-07-07 13:57:56.510 ,4,1,0.,24.0,0.,24.0
1979-07-07 13:58:20.510 ,7,1,0.,24.0,0.,24.0
1979-07-07 13:58:44.510 ,3,1,0.,24.0,0.,24.0
1979-07-07 13:59:08.510 ,0,1,0.,24.0,0.,24.0
1979-07-07 13:59:32.510 ,4,1,0.,24.0,0.,24.0
1979-07-07 13:59:56.510 ,7,1,1.,24.0,0.,24.0
1979-07-07 14:00:20.510 ,3,1,0.,24.0,0.,24.0
1979-07-07 14:00:44.510 ,0,1,0.,24.0,0.,24.0
1979-07-07 14:01:08.510 ,4,1,0.,24.0,0.,24.0
1979-07-07 14:01:32.510 ,7,1,0.,24.0,0.,24.0
1979-07-07 14:01:56.510 ,3,1,1.,24.0,0.,24.0
1979-07-07 14:02:20.510 ,0,1,0.,24.0,0.,24.0
1979-07-07 14:02:44.510 ,4,1,0.,24.0,0.,24.0
1979-07-07 14:03:08.510 ,7,1,0.,24.0,0.,24.0
1979-07-07 14:03:32.510 ,3,1,0.,24.0,0.,24.0
1979-07-07 14:03:56.510 ,0,1,0.,24.0,0.,24.0
1979-07-07 14:04:20.510 ,4,1,0.,24.0,0.,24.0
1979-07-07 14:04:44.510 ,7,1,1.,24.0,0.,24.0
1979-07-07 14:05:08.510 ,3,1,0.,24.0,0.,24.0
1979-07-07 14:05:32.510 ,0,1,0.,24.0,0.,24.0
1979-07-07 14:05:56.510 ,0,0,1.,24.0,0.,24.0
1979-07-07 14:06:20.510 ,0,0,0.,24.0,0.,24.0
1979-07-07 14:06:44.510 ,5,1,0.,24.0,0.,24.0
1979-07-07 14:07:08.510 ,5,0,0.,24.0,0.,24.0
1979-07-07 14:07:32.510 ,4,1,0.,24.0,0.,24.0
1979-07-07 14:07:56.510 ,4,0,0.,24.0,0.,24.0
1979-07-07 14:08:20.510 ,3,1,1.,24.0,0.,24.0
1979-07-07 14:08:44.510 ,3,0,1.,24.0,0.,24.0
1979-07-07 14:09:08.510 ,2,1,0.,24.0,0.,24.0
1979-07-07 14:09:32.510 ,2,0,0.,24.0,0.,24.0
1979-07-07 14:09:56.510 ,1,1,0.,24.0,0.,24.0
1979-07-07 14:10:20.510 ,1,0,0.,24.0,0.,24.0
1979-07-07 14:10:44.510 ,0,1,0.,24.0,0.,24.0
1979-07-07 14:11:08.510 ,0,0,1.,24.0,0.,24.0
1979-07-07 14:11:32.510 ,0,1,0.,24.0,0.,24.0
1979-07-07 14:11:56.510 ,0,0,0.,24.0,0.,24.0
1979-07-07 14:12:20.510 ,1,1,1.,24.0,0.,24.0
1979-07-07 14:12:44.510 ,1,0,1.,24.0,0.,24.0
1979-07-07 14:13:08.510 ,2,1,0.,24.0,0.,24.0
1979-07-07 14:13:32.510 ,2,0,0.,24.0,0.,24.0
1979-07-07 14:13:56.510 ,3,1,0.,24.0,0.,24.0
1979-07-07 14:14:20.510 ,3,0,0.,24.0,0.,24.0
1979-07-07 14:14:44.510 ,4,1,2.,24.0,0.,24.0
1979-07-07 14:15:08.510 ,4,0,0.,24.0,0.,24.0
1979-07-07 14:15:32.510 ,5,1,0.,24.0,0.,24.0
1979-07-07 14:15:56.510 ,5,0,0.,24.0,0.,24.0
1979-07-07 14:16:20.510 ,6,1,0.,24.0,0.,24.0
1979-07-07 14:16:44.510 ,6,0,0.,24.0,0.,24.0
1979-07-07 14:17:08.510 ,0,0,,0,,0
1979-07-07 14:17:32.510 ,0,0,0.,24.0,0.,24.0
1979-07-07 14:17:56.510 ,7,1,0.,24.0,0.,24.0
1979-07-07 14:18:20.510 ,7,0,0.,24.0,0.,24.0
1979-07-07 14:18:44.510 ,6,1,0.,24.0,0.,24.0
1979-07-07 14:19:08.510 ,6,0,0.,24.0,0.,24.0
1979-07-07 14:19:32.510 ,5,1,0.,24.0,0.,24.0
1979-07-07 14:19:56.510 ,5,0,0.,24.0,0.,24.0
1979-07-07 14:20:20.510 ,4,1,0.,24.0,0.,24.0
1979-07-07 14:20:44.510 ,4,0,0.,24.0,0.,24.0
1979-07-07 14:21:08.510 ,3,1,0.,24.0,0.,24.0
1979-07-07 14:21:32.510 ,3,0,0.,24.0,0.,24.0
1979-07-07 14:21:56.510 ,2,1,0.,24.0,0.,24.0
1979-07-07 14:22:20.510 ,2,0,0.,24.0,0.,24.0
1979-07-07 14:22:44.510 ,1,1,0.,24.0,0.,24.0
1979-07-07 14:23:08.510 ,1,0,0.,24.0,0.,24.0
1979-07-07 14:23:32.510 ,0,1,0.,24.0,0.,24.0
1979-07-07 14:23:56.510 ,0,0,1.,24.0,0.,24.0
1979-07-07 14:24:20.510 ,0,1,0.,24.0,0.,24.0
1979-07-07 14:24:44.510 ,0,0,0.,24.0,0.,24.0
1979-07-07 14:25:08.510 ,1,1,0.,24.0,0.,24.0
1979-07-07 14:25:32.510 ,1,0,0.,24.0,0.,24.0
1979-07-07 14:25:56.510 ,2,1,0.,24.0,0.,24.0
1979-07-07 14:26:20.510 ,2,0,0.,24.0,0.,24.0
1979-07-07 14:26:44.510 ,3,1,0.,24.0,0.,24.0
1979-07-07 14:27:08.510 ,3,0,1.,24.0,0.,24.0
1979-07-07 14:27:32.510 ,4,1,0.,24.0,0.,24.0
1979-07-07 14:27:56.510 ,4,0,0.,24.0,0.,24.0
1979-07-07 14:28:20.510 ,5,1,0.,24.0,0.,24.0
1979-07-07 14:28:44.510 ,5,0,0.,24.0,0.,24.0
1979-07-07 14:29:08.510 ,6,1,0.,24.0,0.,24.0
1979-07-07 14:29:32.510 ,6,0,0.,24.0,0.,24.0
1979-07-07 14:29:56.510 ,7,1,0.,24.0,0.,24.0
1979-07-07 14:30:20.510 ,7,0,0.,24.0,0.,24.0
1979-07-07 14:30:44.510 ,7,1,0.,24.0,0.,24.0
1979-07-07 14:31:08.510 ,7,0,1.,24.0,0.,24.0
1979-07-07 14:31:32.510 ,6,1,0.,24.0,0.,24.0
1979-07-07 14:31:56.510 ,6,0,0.,24.0,0.,24.0
1979-07-07 14:32:20.510 ,5,1,0.,24.0,0.,24.0
1979-07-07 14:32:44.510 ,5,0,0.,24.0,0.,24.0
1979-07-07 14:33:08.510 ,4,1,0.,24.0,0.,24.0
1979-07-07 14:33:32.510 ,4,0,1.,24.0,0.,24.0
1979-07-07 14:33:56.510 ,3,1,0.,24.0,0.,24.0
1979-07-07 14:34:20.510 ,3,0,0.,24.0,0.,24.0
1979-07-07 14:34:44.510 ,2,1,1.,24.0,0.,24.0
1979-07-07 14:35:08.510 ,2,0,1.,24.0,0.,24.0
1979-07-07 14:35:32.510 ,1,1,0.,24.0,0.,24.0
1979-07-07 14:35:56.510 ,1,0,0.,24.0,0.,24.0
1979-07-07 14:36:20.510 ,0,1,0.,24.0,0.,24.0
1979-07-07 14:36:44.510 ,0,0,0.,24.0,0.,24.0
1979-07-07 14:37:08.510 ,0,1,0.,24.0,0.,24.0
1979-07-07 14:37:32.510 ,0,0,0.,24.0,0.,24.0
1979-07-07 14:37:56.510 ,1,1,0.,24.0,0.,24.0
1979-07-07 14:38:20.510 ,1,0,0.,24.0,0.,24.0
1979-07-07 14:38:44.510 ,2,1,1.,24.0,0.,24.0
1979-07-07 14:39:08.510 ,2,0,0.,24.0,0.,24.0
1979-07-07 14:39:32.510 ,3,1,0.,24.0,0.,24.0
1979-07-07 14:39:56.510 ,3,0,0.,24.0,0.,24.0
1979-07-07 14:40:20.510 ,4,1,0.,24.0,0.,24.0
1979-07-07 14:40:44.510 ,4,0,0.,24.0,0.,24.0
1979-07-07 14:41:08.510 ,5,1,1.,24.0,0.,24.0
1979-07-07 14:41:32.510 ,5,0,0.,24.0,0.,24.0
1979-07-07 14:41:56.510 ,6,1,0.,24.0,0.,24.0
1979-07-07 14:42:20.510 ,6,0,0.,24.0,0.,24.0
1979-07-07 14:42:44.510 ,7,0,0.,24.0,0.,24.0
1979-07-07 14:43:08.510 ,7,0,0.,24.0,0.,24.0
1979-07-07 14:43:32.510 ,3,1,0.,24.0,0.,24.0
1979-07-07 14:43:56.510 ,0,1,0.,24.0,0.,24.0
1979-07-07 14:44:20.510 ,4,1,0.,24.0,0.,24.0
1979-07-07 14:44:44.510 ,7,1,0.,24.0,0.,24.0
1979-07-07 14:45:08.510 ,3,1,0.,24.0,0.,24.0
1979-07-07 14:45:32.510 ,0,1,1.,24.0,0.,24.0
1979-07-07 14:45:56.510 ,4,1,0.,24.0,0.,24.0
1979-07-07 14:46:20.510 ,7,1,0.,24.0,0.,24.0
1979-07-07 14:46:44.510 ,3,1,0.,24.0,0.,24.0
1979-07-07 14:47:08.510 ,0,1,0.,24.0,0.,24.0
1979-07-07 14:47:32.510 ,4,1,0.,24.0,0.,24.0
1979-07-07 14:47:56.510 ,7,1,0.,24.0,0.,24.0
1979-07-07 14:48:20.510 ,3,1,0.,24.0,0.,24.0
1979-07-07 14:48:44.510 ,0,1,0.,24.0,0.,24.0
1979-07-07 14:49:08.510 ,4,1,0.,24.0,0.,24.0
1979-07-07 14:49:32.510 ,7,1,0.,24.0,0.,24.0
1979-07-07 14:49:56.510 ,3,1,1.,24.0,0.,24.0
1979-07-07 14:50:20.510 ,0,1,0.,24.0,0.,24.0
1979-07-07 14:50:44.510 ,4,1,0.,24.0,0.,24.0
1979-07-07 14:51:08.510 ,7,1,0.,24.0,0.,24.0
1979-07-07 14:51:32.510 ,3,1,0.,24.0,0.,24.0
1979-07-07 14:51:56.510 ,0,1,1.,24.0,0.,24.0
1979-07-07 14:52:20.510 ,4,1,0.,24.0,0.,24.0
1979-07-07 14:52:44.510 ,7,1,1.,24.0,0.,24.0
1979-07-07 14:53:08.500 ,3,1,1.,24.0,0.,24.0
1979-07-07 14:53:32.500 ,0,1,1.,24.0,0.,24.0
1979-07-07 14:53:56.500 ,0,0,1.,24.0,0.,24.0
1979-07-07 14:54:20.500 ,0,0,0.,24.0,0.,24.0
1979-07-07 14:54:44.500 ,5,1,0.,24.0,0.,24.0
1979-07-07 14:55:08.500 ,5,0,0.,24.0,0.,24.0
1979-07-07 14:55:32.500 ,4,1,0.,24.0,0.,24.0
1979-07-07 14:55:56.500 ,4,0,0.,24.0,0.,24.0
1979-07-07 14:56:20.500 ,3,1,0.,24.0,0.,24.0
1979-07-07 14:56:44.500 ,3,0,0.,24.0,0.,24.0
1979-07-07 14:57:08.500 ,2,1,0.,24.0,0.,24.0
1979-07-07 14:57:32.500 ,2,0,0.,24.0,0.,24.0
1979-07-07 14:57:56.500 ,1,1,1.,24.0,0.,24.0
1979-07-07 14:58:20.500 ,1,0,0.,24.0,0.,24.0
1979-07-07 14:58:44.500 ,0,1,0.,24.0,0.,24.0
1979-07-07 14:59:08.500 ,0,0,0.,24.0,0.,24.0
1979-07-07 14:59:32.500 ,0,1,0.,24.0,0.,24.0
1979-07-07 14:59:56.500 ,0,0,0.,24.0,0.,24.0
1979-07-07 15:00:20.500 ,1,1,0.,24.0,0.,24.0
